This is the latest recevied weather packets stored in our database for station/object W4DEX-2. If no packets are shown the sender has not sent any weather packets the latest 10 day(s).
| Time | Temp. | Humidity | Pressure | Rain* | Wind** | Luminosity | Snow |
|---|---|---|---|---|---|---|---|
| 1777929303 | 25.56° C | 16% | 1013.1 hPa | 0 mm | 4.92 m/s, 176° | - | - |
| 1777928703 | 25.56° C | 18% | 1013.1 hPa | 0 mm | 4.92 m/s, 177° | - | - |
| 1777928402 | 25.56° C | 18% | 1013.3 hPa | 0 mm | 4.92 m/s, 178° | - | - |
| 1777928104 | 26.11° C | 16% | 1013.2 hPa | 0 mm | 4.92 m/s, 178° | - | - |
| 1777927803 | 26.11° C | 17% | 1013.4 hPa | 0 mm | 5.81 m/s, 188° | - | - |
| 1777927502 | 25.56° C | 18% | 1013.5 hPa | 0 mm | 4.92 m/s, 182° | - | - |
| 1777927206 | 25.56° C | 19% | 1013.6 hPa | 0 mm | 4.92 m/s, 175° | - | - |
| 1777926602 | 26.11° C | 19% | 1013.5 hPa | 0 mm | 4.92 m/s, 186° | - | - |
| 1777926302 | 26.11° C | 21% | 1013.5 hPa | 0 mm | 4.47 m/s, 183° | - | - |
| 1777926003 | 26.11° C | 20% | 1013.5 hPa | 0 mm | 5.36 m/s, 163° | - | - |
| 1777925702 | 26.67° C | 19% | 1013.6 hPa | 0 mm | 4.92 m/s, 181° | - | - |
| 1777925403 | 26.11° C | 19% | 1013.8 hPa | 0 mm | 4.47 m/s, 176° | - | - |
| 1777925103 | 26.11° C | 19% | 1013.8 hPa | 0 mm | 4.47 m/s, 173° | - | - |
| 1777924804 | 26.11° C | 18% | 1013.7 hPa | 0 mm | 4.92 m/s, 182° | - | - |
| 1777924502 | 26.11° C | 18% | 1013.8 hPa | 0 mm | 4.47 m/s, 180° | - | - |
| 1777924203 | 25.56° C | 18% | 1013.8 hPa | 0 mm | 4.92 m/s, 188° | - | - |
| 1777923902 | 25° C | 20% | 1013.8 hPa | 0 mm | 5.81 m/s, 174° | - | - |
| 1777923603 | 25.56° C | 20% | 1013.9 hPa | 0 mm | 5.36 m/s, 180° | - | - |
| 1777923303 | 25.56° C | 21% | 1013.9 hPa | 0 mm | 4.92 m/s, 180° | - | - |
| 1777923002 | 26.11° C | 19% | 1013.9 hPa | 0 mm | 5.81 m/s, 180° | - | - |
| 1777922703 | 25.56° C | 19% | 1014 hPa | 0 mm | 5.36 m/s, 182° | - | - |
| 1777922402 | 25.56° C | 21% | 1014.2 hPa | 0 mm | 4.92 m/s, 186° | - | - |
| 1777921502 | 25.56° C | 19% | 1014.3 hPa | 0 mm | 4.92 m/s, 188° | - | - |
| 1777921203 | 25.56° C | 18% | 1014.4 hPa | 0 mm | 4.02 m/s, 181° | - | - |
| 1777920603 | 25° C | 20% | 1014.5 hPa | 0 mm | 4.92 m/s, 186° | - | - |
* Rain latest hour (hover to see other rain measurements)
** Current wind speed in m/s (hover to see current wind gust speed)